FREGAT DEB, 46002

Orbit data source: Space-Track

FREGAT DEB, 46002 is space debris in LEO originally from a launch on Mon, 18 Jul 2011 UTC launched from the Tyuratam Missile And Space Complex (TTMTR). Debris objects in space refer to the collection of defunct objects orbiting the Earth. Examples of debris include non-operational satellites, rocket bodies, and fragments generated from explosions, collisions, or faulty payload assembly.

Loading next visibility...
Identifier
46002, 2011-037HD
Orbit
LEO
Last TLE update
1 day ago
Origin
Manufacturer
Lavochkin
Mission
Spacecraft
Bus & Motor
Unknown
Mass
Unknown
Launch date (UTC)
2011-07-18 (14 years ago)
Launch vehicle
Unknown
Launch site
Tyuratam Missile And Space Complex (TTMTR)
Object type
Payload
Rocket body
Debris
Shape & HBR
Unknown
Radar Cross Section
Small (<0.1 m²)

Expand to show TLE details & history

TLE from 1 day ago
0 FREGAT DEB
1 46002U 11037HD  25185.73289804  .00040618  00000-0  89516-1 0  9995
2 46002  51.1852  21.4966 1456905 192.8209 163.1398 11.33049806188367
Epoch: 2025-07-04T17:35Z
TLE epoch observation values (Epoch: 2025-07-04T17:35:22.39Z)
Latitude
Longitude
-165.32775°
Altitude
3,175.573 km
Speed
5.989 km/s
True Right ascension
01h 25m 59s
True Declination
0° 00' 00"
Sunlit
Object was in daylight at epoch
Visualization orbit readout
Latitude
44.36304°
Longitude
-116.24235°
Altitude
2,690.363 km
Speed
6.356 km/s
Apparent Right ascension
03h 06m 37s
Apparent Declination
51° 16' 47"
Sunlit
Object is in daylight
Visualization observer readout
Local Sidereal Time
05:16:38
Azimuth
307.712° NW
Elevation
64.855°
Doppler factor
1
Orbital elements
Apogee altitude
3,215.764 km
Perigee altitude
775.768 km
Semi-major axis
8,373.903 km
Eccentricity
0.14569
Inclination
51.1852°
RAAN
21.4966°
Arg. of periapsis
192.8209°
True anomaly
Unknown
Mean anomaly
163.1398°
Eccentric anomaly
Unknown
Mean motion
2.83238 °/min
Orbital period
127.1 mins
BSTAR
0.089516
Loading maneuver chart data...
Loading SW <> Apogee altitude chart data...
Loading historical data...
Loading historical data...
Loading historical data...
Loading historical data...
Loading historical data...
Loading historical data...
Loading historical data...

FREGAT DEB Visibility forecast

Observer location: undefined°, undefined°

Span
Click to sort rows by Start time (UTC) header in descending order
Start Az.
Max El. time (UTC)
Max El. Az.
Max El.
End time (UTC)
End Az.
13 mins2025-07-05 17:21:17.235Z307.321° NW2025-07-05 17:22:17.235Z324° NNW42.617°2025-07-05 17:34:17.235Z55.039° ENE
22 mins2025-07-05 19:26:17.235Z288.453° WNW2025-07-05 19:40:17.235Z5.53° NNE37.069°2025-07-05 19:48:17.235Z70.646° E
17 mins2025-07-05 21:45:17.235Z305.975° NW2025-07-05 21:55:17.235Z8.965° NNE43.476°2025-07-05 22:02:17.235Z113.328° SE
12 mins2025-07-06 00:01:17.235Z293.113° NW2025-07-06 00:08:17.235Z236.694° WSW27.118°2025-07-06 00:13:17.235Z181.455° SSW
16 mins2025-07-06 12:01:17.235Z136.614° SSE2025-07-06 12:09:17.235Z109.755° ESE15.465°2025-07-06 12:17:17.235Z82.169° E
31 mins2025-07-06 14:05:17.235Z197.565° SSW2025-07-06 14:22:17.235Z126.231° SE39.204°2025-07-06 14:36:17.235Z58.665° ENE
30 mins2025-07-06 16:20:17.235Z242.248° WSW2025-07-06 16:37:17.235Z317.646° NNW44.125°2025-07-06 16:50:17.235Z54.612° ENE
|